Voltar ao catálogo

PEGASUS DEB

AtivoPO
NORAD 39913·DEBRIS·🇺🇸 United States

Lançado May 19, 1994 de Vandenberg Space Force Base

Loading…

Próximas Passagens (próximas 24 horas)

TLE

AtualizadoSource: Space-Track

Época: Sep 14, 2026, 03:38 UTC

1 39913U 94029AFL 26257.15198024  .00000888  00000-0  27049-3 0  9990
2 39913  81.5678  43.6765 0509185  51.4311 313.1337 13.85662445127922

Acompanhe PEGASUS DEB em tempo real com AllMySat

Download on the App Store